Date,TemperatureHighF,TemperatureAvgF,TemperatureLowF,DewpointHighF,DewpointAvgF,DewpointLowF,HumidityHigh,HumidityAvg,HumidityLow,PressureMaxIn,PressureMinIn,WindSpeedMaxMPH,WindSpeedAvgMPH,GustSpeedMaxMPH,PrecipitationSumIn
2013-1-1,26,21,12,19,13,8,86,73,61,30.22,30.07,7,3,10,0.00
2013-1-2,25,21,16,20,16,12,84,81,77,30.24,30.13,5,2,11,0.00
2013-1-3,28,23,16,25,18,10,92,82,73,30.21,30.09,7,3,14,0.00
2013-1-4,30,27,24,24,22,20,86,79,74,30.22,30.04,10,6,19,0.00
2013-1-5,34,26,16,30,22,13,94,86,72,30.32,30.05,8,2,13,0.02
2013-1-6,35,33,31,32,30,26,93,87,79,30.30,29.93,7,3,18,0.01
2013-1-7,37,31,27,26,24,21,83,76,62,30.40,30.16,9,3,19,0.04
2013-1-8,38,31,25,28,25,21,86,79,68,30.28,30.17,7,2,15,0.01
2013-1-9,45,38,30,34,30,24,87,72,51,30.45,30.03,14,7,27,0.02
2013-1-10,44,32,21,32,26,19,95,80,56,30.62,30.19,7,2,15,0.09
2013-1-11,54,44,35,52,42,32,97,92,83,30.19,29.77,11,4,20,0.60
2013-1-12,59,50,45,51,45,36,93,84,67,29.95,29.82,7,2,15,0.00
2013-1-13,45,36,27,39,34,24,95,93,70,30.08,29.81,8,3,13,0.44
2013-1-14,27,21,14,24,17,11,92,83,76,30.49,30.08,10,4,17,0.00
2013-1-15,28,19,10,21,15,8,94,84,67,30.51,30.22,2,0,4,0.07
2013-1-16,34,25,14,29,19,12,93,78,51,30.22,29.84,10,3,18,0.00
2013-1-17,33,27,16,29,20,8,89,75,62,30.37,30.00,12,5,22,0.00
2013-1-18,35,24,10,24,16,8,90,74,56,30.48,29.99,12,4,26,0.00
2013-1-19,46,41,35,36,32,24,78,69,63,29.99,29.56,10,5,17,0.00
2013-1-20,43,20,14,36,10,3,76,64,49,30.23,29.55,17,9,30,0.01
2013-1-21,15,11,3,11,4,-5,87,74,59,30.21,30.02,11,4,18,0.00
2013-1-22,9,3,-3,2,-4,-11,81,71,59,30.37,30.18,9,4,19,0.00
2013-1-23,16,9,-1,11,4,-5,87,79,67,30.37,30.15,5,1,13,0.00
2013-1-24,14,9,4,11,3,-2,89,77,54,30.68,30.20,5,2,10,0.00
2013-1-25,21,16,11,15,12,3,95,82,70,30.58,30.07,7,2,14,0.00
2013-1-26,26,20,11,17,15,8,90,81,65,30.50,30.10,7,2,12,0.04
2013-1-27,29,21,10,27,16,7,93,81,63,30.53,30.17,9,3,16,0.00
2013-1-28,44,37,29,43,35,27,97,94,89,30.19,29.88,8,4,15,0.37
2013-1-29,57,45,31,55,44,29,100,96,91,30.06,29.45,12,5,21,0.50
2013-1-30,57,48,31,55,46,27,98,94,86,29.47,29.10,12,4,29,0.76
2013-1-31,31,20,14,27,16,11,91,83,71,29.93,29.26,16,8,26,0.00
2013-2-1,17,14,9,11,8,2,88,78,67,30.31,29.93,10,5,17,0.00
2013-2-2,20,14,2,16,10,-1,88,83,76,30.26,30.03,6,2,13,0.00
2013-2-3,19,10,-2,15,6,-6,90,82,67,30.09,29.92,8,2,14,0.00
2013-2-4,23,17,9,17,13,5,88,83,76,30.09,29.94,3,0,5,0.00
2013-2-5,27,19,4,26,15,1,99,86,70,30.03,29.85,8,2,14,0.00
2013-2-6,30,22,7,22,15,5,94,77,60,30.34,30.03,9,2,12,0.02
2013-2-7,38,30,25,28,23,17,88,75,68,30.33,29.94,6,3,13,0.01
2013-2-8,28,24,11,28,21,8,100,88,72,30.41,29.87,13,5,27,0.01
2013-2-9,33,16,-2,21,10,-6,94,79,54,30.52,30.33,6,1,11,0.24
2013-2-10,39,31,21,37,25,18,92,79,62,30.34,29.71,13,5,23,0.21
2013-2-11,44,37,31,42,32,26,95,82,68,29.87,29.56,16,9,25,0.03
2013-2-12,31,29,27,26,23,21,81,79,75,30.07,29.88,10,5,18,0.00
2013-2-13,38,30,26,28,24,21,92,80,65,29.98,29.77,5,2,10,0.00
2013-2-14,40,34,29,35,30,26,92,87,80,29.87,29.69,12,5,22,0.03
2013-2-15,32,26,21,28,18,13,86,72,59,30.17,29.88,9,5,16,0.00
2013-2-16,23,19,14,19,14,10,89,81,68,30.15,30.04,7,2,12,0.00
2013-2-17,22,14,6,14,7,2,89,74,53,30.27,30.12,9,3,15,0.01
2013-2-18,39,25,15,27,15,7,72,67,59,30.27,29.82,12,7,25,0.00
2013-2-21,22,20,19,18,15,14,88,80,71,30.43,30.33,4,2,15,0.00
2013-2-22,32,26,21,31,24,18,95,90,83,30.33,29.92,9,4,15,0.01
2013-2-23,32,29,24,31,24,20,94,82,69,29.96,29.90,9,4,14,0.02
2013-2-24,36,27,18,27,22,16,92,84,64,30.20,29.93,8,2,15,0.06
2013-2-25,42,30,17,28,23,15,93,76,52,30.29,30.15,3,0,7,0.01
2013-2-26,36,31,26,32,26,21,95,84,70,30.18,29.57,5,2,14,0.17
2013-2-27,35,34,32,34,32,31,96,95,92,29.60,29.50,3,0,7,0.46
2013-2-28,34,32,28,32,29,24,96,91,82,30.03,29.58,10,6,21,0.17
2013-3-1,28,25,23,25,21,19,92,84,81,30.18,30.02,9,5,16,0.00
2013-3-2,24,22,18,20,18,15,90,84,81,30.15,30.12,7,4,13,0.00
2013-3-3,26,20,13,19,15,10,90,80,69,30.12,30.07,9,3,17,0.01
2013-3-4,31,20,8,18,13,6,92,77,54,30.22,30.12,6,1,8,0.02
2013-3-5,38,26,13,26,20,10,92,79,58,30.20,29.91,5,2,14,0.00
2013-3-6,36,31,25,30,27,22,90,84,76,30.26,29.94,6,3,12,0.00
2013-3-7,32,30,20,29,25,16,93,83,64,30.45,30.25,7,2,14,0.02
2013-3-8,43,28,15,30,22,13,94,79,55,30.56,30.45,4,1,7,0.00
2013-3-9,44,35,24,33,28,22,93,76,59,30.46,30.06,9,3,16,0.00
2013-3-10,58,50,40,46,39,32,77,66,56,30.07,29.80,10,4,19,0.00
2013-3-11,56,49,36,48,44,33,95,83,56,29.82,29.46,12,6,21,0.45
2013-3-12,36,33,29,33,29,24,89,83,70,29.94,29.67,10,5,16,0.00
2013-3-13,32,27,22,27,20,15,92,76,56,30.25,29.90,11,6,24,0.01
2013-3-14,38,29,20,23,19,15,82,66,51,30.31,30.12,7,3,14,0.01
2013-3-15,38,34,28,33,29,19,95,83,61,30.12,29.88,7,3,13,0.04
2013-3-16,33,28,24,32,25,20,95,89,75,30.08,29.82,7,2,15,0.08
2013-3-17,32,25,19,24,16,12,86,70,50,30.33,30.08,7,3,13,0.07
2013-3-18,34,28,19,32,24,13,95,85,77,30.26,29.60,9,4,22,0.11
2013-3-19,34,25,22,31,20,16,91,81,71,29.97,29.63,14,8,21,0.00
2013-3-20,27,22,16,18,15,11,81,73,59,30.00,29.93,10,6,19,0.00
2013-3-21,29,23,15,25,19,11,98,82,71,29.99,29.90,8,5,15,0.01
2013-3-22,38,29,24,25,21,18,83,72,58,30.08,29.98,8,4,14,0.01
2013-3-23,34,29,24,26,23,20,90,79,69,30.16,30.06,5,1,9,0.00
2013-3-24,38,28,20,29,23,18,94,82,59,30.12,29.73,6,2,16,0.00
2013-3-25,38,33,30,30,27,24,82,76,67,29.97,29.65,9,5,17,0.00
2013-3-26,43,35,31,33,30,27,88,79,59,30.15,29.97,8,3,14,0.00
2013-3-27,45,37,29,30,27,25,85,69,51,30.24,30.15,11,5,20,0.01
2013-3-28,50,38,30,31,27,24,81,64,44,30.31,30.24,10,4,17,0.00
2013-3-29,50,26,29,28,-25,-100,78,30,37,30.32,30.23,6,-401,12,0.00
2013-3-30,55,30,24,32,-22,-100,93,29,28,30.25,29.93,7,-378,14,0.00
2013-3-31,56,17,45,41,-53,-100,80,21,50,29.93,29.63,10,-657,17,0.00
2013-4-1,34,15,26,22,-44,-100,80,27,45,30.14,29.70,11,-518,21,0.00
2013-4-2,39,15,31,18,-52,-100,57,18,37,30.29,30.13,11,-581,19,0.00
2013-4-3,42,20,27,20,-35,-100,67,27,37,30.48,30.28,15,-440,17,0.00
2013-4-4,56,41,28,24,20,16,65,45,27,30.39,29.98,8,3,14,0.00
2013-4-5,46,39,31,32,24,19,88,56,36,30.24,29.97,9,3,18,0.00
2013-4-6,50,39,30,28,24,17,77,54,38,30.27,29.78,12,6,22,0.00
2013-4-7,56,46,31,47,36,27,89,69,41,30.07,29.61,13,6,21,0.00
2013-4-8,62,43,29,54,39,26,95,86,67,30.08,29.72,13,4,22,0.33
2013-4-9,50,44,40,45,42,38,96,93,79,30.12,29.91,8,2,14,0.68
2013-4-10,42,39,36,41,38,34,96,95,91,30.10,29.84,9,2,18,0.59
2013-4-11,37,36,35,35,34,34,95,94,91,30.06,29.69,7,3,23,0.90
2013-4-12,42,37,33,38,35,32,96,92,78,29.79,29.58,9,2,15,0.29
2013-4-13,40,38,35,38,31,27,95,79,63,30.02,29.79,12,6,22,0.03
2013-4-14,48,39,29,38,32,26,93,78,64,30.15,29.96,8,2,15,0.02
2013-4-15,67,56,42,55,47,35,91,72,61,29.97,29.87,13,5,22,0.03
2013-4-16,60,51,44,55,43,36,94,75,44,30.25,29.87,9,3,17,0.01
2013-4-17,59,46,38,44,37,32,94,71,46,30.39,30.02,14,2,22,0.64
2013-4-18,76,57,45,66,54,42,95,89,70,30.03,29.54,16,5,27,0.56
2013-4-19,58,44,32,57,39,30,96,84,68,29.76,29.33,13,8,25,0.88
2013-4-20,37,32,26,30,23,16,93,70,59,30.50,29.76,10,5,19,0.09
2013-4-21,50,36,22,30,25,20,95,67,41,30.67,30.49,7,2,15,0.01
2013-4-22,62,48,31,35,30,23,90,53,29,30.51,30.22,7,2,12,0.00
2013-4-23,68,56,46,53,43,35,94,65,47,30.22,29.83,11,4,20,0.30
2013-4-24,48,40,34,46,35,28,95,83,65,30.16,29.80,9,4,16,0.43
2013-4-25,49,41,34,41,32,27,91,72,46,30.38,30.11,10,4,20,0.07
2013-4-26,59,45,29,39,33,27,94,66,44,30.49,30.35,10,3,20,0.00
2013-4-27,70,57,41,44,39,35,83,54,30,30.38,30.12,7,2,15,0.00
2013-4-28,62,54,51,52,46,36,96,76,52,30.12,29.85,7,1,12,0.19
2013-4-29,70,60,52,56,53,51,98,82,56,29.95,29.85,4,1,9,0.01
2013-4-30,72,62,55,58,55,52,93,79,58,30.07,29.92,13,5,22,0.26
2013-5-1,81,70,59,60,56,53,83,63,44,30.23,30.05,8,3,16,0.00
2013-5-2,78,68,55,57,52,47,81,59,42,30.24,30.12,8,3,18,0.00
2013-5-3,77,68,58,58,47,39,59,49,30,30.14,30.05,8,3,16,0.00
2013-5-4,71,64,52,50,44,35,68,50,28,30.12,30.06,8,3,17,0.00
2013-5-5,73,62,51,50,41,34,73,50,24,30.12,30.04,6,2,16,0.00
2013-5-6,77,58,40,52,44,38,96,63,36,30.08,29.98,5,1,12,0.00
2013-5-7,78,59,45,56,48,42,93,70,40,30.08,30.00,5,1,11,0.00
2013-5-8,81,68,48,54,50,46,96,58,32,30.04,29.93,4,1,8,0.00
2013-5-9,80,67,51,58,53,48,94,64,36,29.98,29.88,2,0,6,0.00
2013-5-10,67,51,41,58,49,39,96,91,63,29.91,29.75,7,3,15,0.36
2013-5-11,62,46,37,49,41,33,96,84,57,29.92,29.74,11,3,20,0.01
2013-5-12,46,39,30,34,31,25,87,71,55,30.13,29.89,12,6,26,0.00
2013-5-13,54,40,26,34,27,22,88,62,36,30.22,30.13,8,2,16,0.00
2013-5-14,76,57,43,55,41,30,76,56,43,30.14,29.72,8,2,15,0.00
2013-5-15,79,69,55,60,53,47,82,58,36,29.80,29.57,9,4,18,0.01
2013-5-16,79,63,45,53,47,40,95,59,33,30.05,29.79,6,1,12,0.00
2013-5-17,72,59,44,50,44,39,85,60,40,30.16,30.05,4,1,10,0.00
2013-5-18,81,67,53,52,47,44,79,52,33,30.17,30.03,6,1,15,0.00
2013-5-19,87,72,53,64,56,46,85,59,44,30.06,29.86,3,1,11,0.00
2013-5-20,90,75,66,72,66,61,94,74,48,29.92,29.74,17,3,25,0.44
2013-5-21,82,74,65,67,64,61,94,74,52,29.80,29.70,6,2,14,0.04
2013-5-22,78,68,62,66,63,60,94,85,61,29.73,29.60,8,2,18,0.13
2013-5-23,62,51,41,60,49,39,95,94,92,30.18,29.67,8,3,21,0.33
2013-5-24,55,45,38,42,38,34,96,78,55,30.41,30.18,7,3,13,0.00
2013-5-25,63,49,34,44,38,32,96,70,39,30.45,30.32,6,1,11,0.01
2013-5-26,67,53,34,44,39,33,96,63,37,30.39,30.26,5,1,14,0.00
2013-5-27,65,53,40,50,42,31,94,70,41,30.29,30.03,7,2,15,0.03
2013-5-28,73,61,51,69,59,50,98,95,87,30.03,29.76,7,1,13,1.07
2013-5-29,80,72,63,69,66,62,97,83,65,29.98,29.75,7,1,16,0.24
2013-5-30,85,75,67,75,68,62,92,79,64,30.04,29.94,6,1,16,0.36
2013-5-31,81,74,69,71,67,66,91,81,69,29.97,29.83,7,3,18,0.06
2013-6-1,78,70,64,68,65,62,96,84,66,29.86,29.67,7,2,14,0.21
2013-6-2,68,62,51,64,56,43,89,81,73,30.01,29.63,9,4,21,0.00
2013-6-3,66,53,38,49,43,36,95,70,48,30.11,30.01,6,2,11,0.00
2013-6-4,72,57,43,51,46,41,97,70,44,30.22,30.11,2,0,6,0.00
2013-6-5,73,61,49,53,45,38,82,58,40,30.20,30.01,4,1,9,0.00
2013-6-6,67,60,55,56,50,46,80,71,64,30.04,29.88,5,2,12,0.00
2013-6-7,63,55,49,54,51,46,94,86,73,29.95,29.90,4,1,9,0.00
2013-6-8,73,62,53,57,54,51,92,75,52,30.08,29.93,2,0,6,0.00
2013-6-9,76,68,54,61,56,52,93,67,54,30.12,29.95,7,3,16,0.00
2013-6-10,75,66,60,68,62,53,97,89,61,29.96,29.73,4,1,16,1.42
2013-6-11,79,70,62,69,64,61,98,85,66,29.90,29.79,6,1,12,0.02
2013-6-12,75,68,58,68,64,57,97,89,76,29.93,29.66,6,0,11,0.02
2013-6-13,77,68,61,66,61,57,96,80,53,29.94,29.60,8,3,15,1.16
2013-6-14,75,64,56,60,55,50,94,74,43,30.10,29.94,6,1,12,0.00
2013-6-15,76,66,56,66,59,50,92,78,61,30.09,29.91,4,0,9,0.00
2013-6-16,80,70,61,68,63,57,95,79,50,29.91,29.75,6,2,15,0.42
2013-6-17,84,68,56,67,60,54,95,75,48,29.95,29.82,6,1,12,0.00
2013-6-18,70,62,53,58,51,43,94,70,41,30.10,29.90,5,2,13,0.02
2013-6-19,76,61,43,56,49,41,95,67,41,30.20,30.09,2,0,6,0.00
2013-6-20,82,68,53,60,55,50,91,65,39,30.22,30.14,4,1,10,0.00
2013-6-21,84,72,59,69,61,53,87,68,52,30.21,30.04,4,1,13,0.03
2013-6-22,88,78,70,74,68,60,90,73,56,30.08,29.96,5,1,11,0.01
2013-6-23,90,79,70,73,70,68,95,75,52,30.03,29.94,4,1,11,0.00
2013-6-24,87,76,68,73,69,65,95,78,58,30.04,29.90,9,1,12,0.14
2013-6-25,80,71,66,72,68,64,96,89,74,29.95,29.82,6,1,11,0.21
2013-6-26,84,74,64,73,68,62,97,83,65,29.87,29.74,2,0,6,0.01
2013-6-27,85,73,64,74,68,63,96,87,66,29.76,29.62,12,0,30,1.65
2013-6-28,77,67,63,68,64,62,97,92,70,29.65,29.53,6,1,12,0.36
2013-6-29,74,67,62,65,62,58,96,83,66,29.75,29.55,5,1,11,0.00
2013-6-30,79,68,59,65,60,48,91,75,54,29.98,29.75,6,1,13,0.10
2013-7-1,69,62,54,59,54,48,88,75,58,30.10,29.97,5,1,12,0.03
2013-7-2,76,66,56,65,59,53,91,80,66,30.09,30.04,3,1,10,0.00
2013-7-3,83,71,59,71,64,57,94,81,58,30.10,30.03,4,1,10,0.00
2013-7-4,80,72,65,68,64,60,94,78,53,30.12,30.06,5,1,13,0.00
2013-7-5,85,74,65,68,65,62,93,74,50,30.12,30.04,2,0,5,0.00
2013-7-6,84,76,66,72,69,65,95,81,62,30.10,29.98,5,1,10,0.00
2013-7-7,83,74,69,72,69,67,96,86,65,30.03,29.94,3,0,9,0.25
2013-7-8,82,74,69,76,70,66,94,87,78,30.02,29.95,5,0,12,0.06
2013-7-9,88,75,68,76,70,66,96,87,63,29.98,29.85,7,0,13,0.60
2013-7-10,86,77,64,76,70,58,97,80,60,29.95,29.74,8,2,18,0.07
2013-7-11,78,66,55,62,58,54,96,75,49,30.09,29.94,6,1,11,0.00
2013-7-12,82,68,52,67,59,51,96,76,48,30.18,30.08,2,0,7,0.00
2013-7-13,85,73,57,66,61,55,97,69,44,30.22,30.15,5,1,10,0.00
2013-7-14,90,78,63,73,68,61,96,74,54,30.25,30.21,3,0,6,0.00
2013-7-15,92,79,69,79,73,67,97,83,61,30.29,30.21,3,0,10,0.26
2013-7-16,92,81,73,79,75,72,97,82,59,30.30,30.22,3,0,9,0.00
2013-7-17,93,82,72,80,75,70,95,82,61,30.27,30.13,4,1,12,0.00
2013-7-18,92,82,71,78,74,70,96,79,60,30.15,29.93,6,1,11,0.00
2013-7-19,92,83,76,77,74,67,90,76,53,29.94,29.68,13,2,18,0.01
2013-7-20,85,76,66,73,65,59,92,70,45,29.93,29.70,6,1,12,0.00
2013-7-21,82,71,59,65,60,55,93,71,52,30.02,29.92,3,0,6,0.00
2013-7-22,82,74,66,70,66,61,93,77,59,29.96,29.75,5,1,11,0.02
2013-7-23,80,69,60,74,64,51,95,84,64,29.90,29.66,9,2,17,0.74
2013-7-24,72,62,51,55,52,47,87,70,51,30.07,29.90,4,1,12,0.00
2013-7-25,78,64,48,60,53,46,96,72,45,30.13,30.06,3,0,9,0.00
2013-7-26,80,69,59,64,59,55,88,73,54,30.12,29.91,5,1,12,0.04
2013-7-27,77,65,55,67,62,50,94,87,68,29.92,29.73,6,1,12,0.38
2013-7-28,64,57,50,57,52,48,93,85,70,29.99,29.83,8,1,13,0.04
2013-7-29,69,60,55,59,56,53,94,85,67,30.20,29.97,4,1,10,0.05
2013-7-30,78,65,49,62,57,48,97,78,52,30.25,30.13,3,0,6,0.00
2013-7-31,69,66,63,65,63,61,96,92,87,30.13,29.90,3,0,6,0.66
2013-8-1,76,67,58,66,61,54,96,84,56,29.92,29.88,5,1,12,0.00
2013-8-2,74,64,53,65,59,51,95,86,68,29.93,29.84,5,1,12,0.00
2013-8-3,77,66,54,63,58,52,96,76,50,30.07,29.91,5,1,11,0.00
2013-8-4,72,62,53,59,55,51,93,78,55,30.19,30.07,5,1,12,0.00
2013-8-5,71,63,53,59,55,50,93,76,54,30.13,29.97,5,1,12,0.00
2013-8-6,78,69,63,70,64,57,93,85,74,29.98,29.88,5,2,12,0.13
2013-8-7,84,72,63,74,68,61,95,86,70,29.91,29.81,8,1,13,0.60
2013-8-8,76,68,60,68,62,57,94,81,58,30.02,29.91,3,1,10,0.00
2013-8-9,79,68,54,63,59,52,96,76,52,30.02,29.94,5,1,11,0.00
2013-8-10,77,67,56,62,59,54,96,76,51,30.15,30.02,4,0,7,0.00
2013-8-11,77,68,61,64,60,57,93,76,54,30.13,30.04,2,0,9,0.00
2013-8-12,69,65,62,67,63,60,96,93,89,30.07,29.85,4,0,9,0.54
2013-8-13,67,60,53,64,52,46,96,77,51,30.08,29.85,7,3,17,0.00
2013-8-14,69,58,47,55,50,45,93,77,53,30.19,30.07,5,1,11,0.00
2013-8-15,73,60,46,59,52,44,96,78,53,30.20,30.10,4,0,9,0.00
2013-8-16,81,64,49,61,55,47,96,75,44,30.22,30.12,3,0,6,0.00
2013-8-17,82,65,50,63,55,48,97,74,44,30.29,30.19,2,0,6,0.01
2013-8-18,82,66,52,64,57,50,97,78,46,30.25,30.12,1,0,6,0.00
2013-8-19,82,68,54,65,59,52,96,76,46,30.13,30.03,3,0,9,0.00
2013-8-20,86,71,58,69,63,56,96,79,54,30.14,30.07,3,0,10,0.00
2013-8-21,86,75,65,72,68,62,94,80,58,30.12,29.98,5,1,10,0.00
2013-8-22,81,74,68,69,67,64,93,80,61,30.05,29.92,5,1,12,0.00
2013-8-23,82,68,52,66,58,50,96,74,44,30.22,30.04,5,1,10,0.00
2013-8-24,84,68,51,63,57,50,97,72,44,30.33,30.22,2,0,5,0.00
2013-8-25,87,74,62,70,64,58,91,72,53,30.29,30.14,4,1,12,0.00
2013-8-26,85,75,67,74,68,62,94,78,66,30.14,29.96,5,1,12,0.06
2013-8-27,82,74,70,76,72,68,95,92,81,30.00,29.82,7,0,14,1.29
2013-8-28,82,74,65,75,71,63,96,91,76,30.02,29.79,6,1,12,0.42
2013-8-29,87,73,63,73,67,61,97,83,56,30.09,30.00,2,0,7,0.01
2013-8-30,86,76,66,74,70,64,95,83,62,30.00,29.72,5,1,13,0.06
2013-8-31,79,72,66,73,67,64,95,86,69,29.86,29.75,4,1,10,0.01
2013-9-1,81,70,63,72,67,61,96,90,75,29.86,29.72,6,0,18,0.47
2013-9-2,72,66,56,68,61,53,96,85,68,29.93,29.73,6,2,15,0.00
2013-9-3,74,62,56,59,55,52,90,77,54,30.03,29.92,6,2,11,0.00
2013-9-4,79,65,52,65,59,50,96,81,60,30.09,30.00,6,2,14,0.01
2013-9-5,70,59,48,62,51,45,93,76,49,30.28,30.09,5,1,11,0.00
2013-9-6,76,60,45,57,51,43,96,75,47,30.31,30.08,3,1,9,0.00
2013-9-7,76,68,59,71,62,50,95,81,66,30.08,29.89,4,0,9,0.15
2013-9-8,73,67,56,63,56,50,92,69,56,30.11,30.05,4,1,12,0.00
2013-9-9,78,65,51,72,61,48,93,87,78,30.08,29.88,5,1,10,0.05
2013-9-10,92,80,71,75,71,67,91,74,46,29.99,29.86,6,1,16,0.00
2013-9-11,88,77,69,75,69,64,87,77,61,30.01,29.91,8,1,14,0.00
2013-9-12,76,66,55,65,60,46,95,81,53,29.98,29.86,9,2,20,0.17
2013-9-13,57,52,40,47,44,38,93,76,51,30.17,29.98,7,3,15,0.00
2013-9-14,69,51,36,48,42,34,96,75,41,30.23,30.11,3,0,10,0.00
2013-9-15,61,54,49,54,49,44,95,83,69,30.16,30.08,2,0,6,0.15
2013-9-16,62,54,44,53,48,40,95,83,56,30.42,30.15,6,2,12,0.00
2013-9-17,68,51,34,54,44,32,96,79,57,30.44,30.25,4,1,10,0.00
2013-9-18,76,60,42,60,52,40,96,76,50,30.25,30.05,6,1,13,0.00
2013-9-19,79,69,59,70,64,57,92,83,71,30.06,29.89,6,1,14,0.00
2013-9-20,77,71,66,72,68,64,94,90,81,29.89,29.72,6,2,14,0.08
2013-9-21,67,60,53,64,55,45,95,83,56,29.89,29.67,7,2,13,0.01
2013-9-22,56,50,41,45,43,38,93,77,61,30.12,29.89,6,2,11,0.00
2013-9-23,61,47,34,47,41,32,97,81,58,30.24,30.12,3,0,7,0.00
2013-9-24,69,51,37,52,44,35,97,79,52,30.19,30.03,2,0,9,0.00
2013-9-25,73,54,37,56,46,35,97,80,42,30.05,29.98,2,0,6,0.01
2013-9-26,78,55,39,59,48,37,97,81,42,30.17,30.03,2,0,6,0.01
2013-9-27,78,59,41,60,51,40,97,78,45,30.26,30.17,3,0,11,0.00
2013-9-28,77,64,46,61,55,44,96,77,50,30.21,30.01,7,2,14,0.01
2013-9-29,64,61,58,60,57,55,95,88,75,30.02,29.94,4,1,11,0.15
2013-9-30,71,60,52,57,54,50,96,83,51,30.04,29.93,4,0,11,0.00
2013-10-1,74,62,51,65,58,49,98,88,70,30.01,29.92,4,1,14,0.01
2013-10-2,78,64,49,60,53,44,96,73,32,30.10,29.94,3,0,7,0.01
2013-10-3,80,66,48,69,60,46,95,83,67,30.07,29.91,7,1,13,0.00
2013-10-4,78,70,64,69,66,61,95,88,73,30.03,29.93,3,0,9,0.03
2013-10-5,69,65,64,68,64,63,97,95,94,30.04,29.99,2,0,5,0.40
2013-10-6,70,59,53,65,56,51,95,92,85,29.73,29.64,7,2,13,0.56
2013-10-7,59,50,43,54,47,41,95,87,65,30.13,29.68,9,2,16,0.05
2013-10-8,68,53,39,51,45,37,97,76,50,30.31,30.13,5,1,12,0.00
2013-10-9,71,56,44,54,48,42,96,76,50,30.34,30.23,4,1,10,0.00
2013-10-10,72,54,40,57,46,39,100,77,41,30.25,30.15,4,0,7,0.01
2013-10-11,74,54,37,54,45,36,97,75,38,30.19,30.09,2,0,7,0.00
2013-10-12,76,61,45,63,54,44,97,80,51,30.12,30.04,5,1,13,0.00
2013-10-13,66,57,41,58,48,39,93,74,45,30.38,30.10,5,1,12,0.00
2013-10-14,64,48,34,46,40,33,96,78,47,30.45,30.31,4,0,8,0.00
2013-10-15,64,52,38,59,50,37,97,90,78,30.32,29.83,7,2,14,0.17
2013-10-16,61,54,50,59,50,46,95,88,76,29.91,29.80,7,2,15,0.01
2013-10-17,52,49,44,50,48,42,98,94,91,29.91,29.76,6,1,10,0.33
2013-10-18,61,49,42,47,43,41,95,80,49,29.93,29.85,8,2,13,0.02
2013-10-19,50,44,40,43,40,36,94,86,68,29.92,29.75,7,2,12,0.16
2013-10-20,55,47,39,44,41,37,93,79,58,29.94,29.83,7,2,16,0.02
2013-10-21,55,50,40,49,44,35,91,80,67,29.87,29.81,7,3,13,0.05
2013-10-22,47,40,33,36,32,27,83,72,57,29.94,29.86,8,3,14,0.00
2013-10-23,46,38,30,35,32,27,94,80,49,29.97,29.86,6,2,16,0.00
2013-10-24,46,36,29,35,31,27,94,83,57,30.22,29.96,7,2,13,0.01
2013-10-25,45,37,28,36,30,26,94,79,60,30.36,30.10,7,2,14,0.01
2013-10-26,49,42,37,39,34,29,93,71,56,30.10,29.77,10,4,17,0.15
2013-10-27,51,40,30,38,33,28,94,78,55,30.10,30.00,5,1,11,0.01
2013-10-28,48,39,30,40,33,28,95,81,68,30.46,30.07,4,1,10,0.00
2013-10-29,48,41,38,37,34,30,82,74,64,30.48,30.28,2,1,6,0.00
2013-10-30,64,48,32,51,41,30,96,79,58,30.28,29.97,5,1,14,0.04
2013-10-31,61,58,53,59,57,50,96,94,92,29.98,29.13,8,4,23,1.60
2013-11-1,60,49,45,58,44,40,95,85,73,29.68,29.10,15,6,23,0.13
2013-11-2,45,42,32,44,40,30,100,93,88,30.15,29.66,6,2,11,0.20
2013-11-3,45,35,26,38,31,24,96,85,69,30.49,30.15,3,1,7,0.01
2013-11-4,48,41,33,37,32,28,92,70,47,30.51,30.31,8,4,17,0.00
2013-11-5,55,50,44,48,44,37,87,78,72,30.37,30.17,8,3,17,0.00
2013-11-6,55,51,41,52,47,38,94,85,66,30.17,29.76,10,6,21,0.38
2013-11-7,43,38,33,39,32,27,94,78,56,30.16,30.00,9,4,18,0.02
2013-11-8,44,35,28,32,28,26,91,76,53,30.32,30.15,6,2,13,0.00
2013-11-9,53,46,37,42,36,30,76,69,61,30.21,29.81,12,6,21,0.01
2013-11-10,45,40,30,36,32,26,89,72,59,30.30,29.92,11,5,23,0.00
2013-11-11,42,35,27,38,30,22,93,83,72,30.36,30.07,9,4,16,0.15
2013-11-12,32,26,21,23,19,16,87,75,60,30.60,30.36,10,4,18,0.01
2013-11-13,39,28,17,26,19,15,90,69,42,30.59,30.18,9,3,16,0.01
2013-11-14,51,40,32,31,24,19,63,53,42,30.19,29.97,7,4,17,0.00
2013-11-15,52,44,37,32,28,25,68,55,41,30.08,29.99,6,2,15,0.00
2013-11-16,56,47,38,53,42,30,92,83,68,30.12,29.79,13,6,23,0.01
2013-11-17,62,56,44,59,53,40,94,90,79,29.80,29.19,20,10,30,0.83
2013-11-18,46,39,34,41,31,24,85,74,68,30.16,29.44,17,9,30,0.00
2013-11-19,39,32,26,27,21,-100,86,68,55,30.46,30.16,7,-20,16,0.00
2013-11-20,45,34,23,33,26,21,94,74,48,30.49,30.27,9,2,19,0.00
2013-11-21,48,44,41,44,38,30,94,79,64,30.32,30.20,9,4,17,0.09
2013-11-22,44,38,26,43,35,23,96,90,78,30.40,30.16,11,3,19,0.10
2013-11-23,26,10,20,24,-54,-100,91,29,59,30.57,30.30,15,-599,23,0.00
2013-11-24,23,8,15,12,-59,-100,83,25,59,30.65,30.43,8,-626,14,0.00
2013-11-25,-200,0,200,-100,-100,-100,0,0,100,30.44,30.06,0,-999,0,0.00
2013-11-26,-200,0,200,-100,-100,-100,0,0,100,30.07,29.92,0,-999,0,0.00
2013-11-27,24,7,19,16,-66,-100,81,21,59,30.24,29.92,13,-696,21,0.00
2013-11-28,-200,0,200,-100,-100,-100,0,0,100,30.41,30.24,0,-999,0,0.00
2013-11-29,32,8,24,23,-67,-100,88,19,61,30.68,30.40,1,-728,4,0.01
2013-11-30,43,12,31,31,-61,-100,75,20,59,30.58,30.11,12,-691,16,0.00
2013-12-1,40,18,32,34,-31,-100,91,45,79,30.11,30.02,7,-478,11,0.00
2013-12-2,39,31,24,29,26,21,92,80,56,30.04,29.93,2,0,5,0.00
2013-12-3,38,32,22,36,29,20,93,89,82,29.97,29.87,5,2,11,0.02
2013-12-4,57,46,38,54,44,36,95,92,87,29.92,29.61,11,3,18,0.07
2013-12-5,58,41,29,55,35,22,92,78,65,30.17,29.60,12,6,19,0.00
2013-12-6,29,24,19,22,17,12,78,74,69,30.46,30.16,6,4,12,0.00
2013-12-7,22,18,9,12,10,5,85,71,59,30.67,30.46,8,3,15,0.00
2013-12-8,26,18,8,24,13,5,92,82,66,30.67,30.04,6,1,12,0.00
2013-12-9,28,25,18,26,22,10,93,85,69,30.13,29.91,13,6,23,0.00
2013-12-10,21,16,10,17,10,3,87,75,51,30.23,29.99,11,4,19,0.00
2013-12-11,20,16,6,17,10,0,89,79,68,30.51,30.23,8,3,13,0.00
2013-12-12,20,12,-1,15,6,-4,89,78,56,30.51,30.23,9,3,16,0.00
2013-12-13,26,23,20,20,18,15,86,81,74,30.35,30.19,6,2,12,0.00
2013-12-14,21,19,17,18,16,13,91,88,77,30.34,29.89,5,2,11,0.00
2013-12-15,23,17,9,21,14,4,92,85,72,30.09,29.86,10,3,20,0.00
2013-12-16,24,11,-1,12,6,-4,92,80,58,30.25,30.08,2,0,5,0.11
2013-12-17,28,21,13,24,18,10,93,88,83,30.09,29.91,8,2,14,0.01
2013-12-18,28,25,22,24,21,14,93,83,66,30.15,29.91,9,4,20,0.00
2013-12-19,39,32,23,34,27,18,92,82,66,30.03,29.88,5,1,11,0.15
2013-12-20,34,33,32,32,31,31,95,95,93,29.95,29.77,3,0,7,0.35
2013-12-21,32,32,32,31,31,30,96,95,94,29.91,29.72,3,1,8,0.46
2013-12-22,33,31,26,31,29,25,95,95,94,30.01,29.61,0,0,0,0.54
2013-12-23,26,24,18,25,22,15,94,92,85,30.35,30.01,0,0,0,0.00
2013-12-24,18,11,2,15,8,0,100,87,78,30.60,30.33,0,0,0,0.00
2013-12-25,23,18,10,21,15,8,92,88,85,30.57,30.15,9,3,18,0.00
2013-12-26,25,23,22,24,21,16,94,89,78,30.32,30.07,7,2,15,0.00
2013-12-27,38,31,25,34,28,23,100,90,78,30.36,30.06,6,1,15,0.12
2013-12-28,48,40,30,36,32,27,92,75,60,30.14,29.90,7,3,14,0.05
2013-12-29,40,32,18,33,26,12,92,78,69,30.06,29.72,10,4,15,0.00
2013-12-30,18,16,13,12,8,4,80,71,63,30.32,30.06,7,3,13,0.00
2013-12-31,17,15,11,13,10,5,89,82,69,30.40,30.10,9,4,17,0.00
2014-1-1,14,11,9,11,6,2,92,80,67,30.47,30.33,4,2,7,0.00
2014-1-2,14,10,0,10,6,-5,88,84,75,30.36,30.19,11,5,18,0.00